Simultaneous Nadir Overpasses (SNOs) Predictions

Prediction of SNOs between GOES-17 and METOP-C Satellite Orbit:

Table of predicted SNOs for the next 14.0 days since TLE Epoch: 4/13/2024
Index Date Time (GOES-17) GOES-17 Lat,Lon METOP-C Lat,Lon Distance(km) Time Diff (sec)
1 04/14/2024 16:28:41 0.00,-104.68 -0.02,-104.49 21.37 80
2 04/17/2024 04:24:25 -0.00,-104.69 0.12,-104.10 67.33 80
3 04/18/2024 16:43:20 0.00,-104.69 0.91,-108.66 453.01 80
4 04/19/2024 16:25:22 0.00,-104.70 -0.24,-103.68 116.45 80
5 04/21/2024 04:44:23 -0.01,-104.71 -0.80,-108.27 405.66 80
6 04/22/2024 04:21:05 -0.01,-104.72 0.30,-103.28 163.76 80
7 04/23/2024 16:39:59 0.01,-104.72 0.72,-107.84 356.37 80
8 04/24/2024 16:22:01 0.01,-104.72 -0.38,-102.85 213.14 80
9 04/26/2024 04:41:02 -0.01,-104.74 -0.64,-107.44 309.18 80
